Latest Weather Observations for Dubbo

IDN60801

Issued at 1:35 pm EDT Wednesday 22 October 2014 (issued every 30 minutes, with the page automatically refreshed every 10 minutes)

About weather observations | Map of weather stations | Latest weather observations for NSW | Other Formats
Station Details ID: 065070 Name: DUBBO AIRPORT AWS Lat: -32.22 Lon: 148.58 Height: 284.0 m
Data from the previous 72 hours. | See also: Recent months at Dubbo
Date/Time
EDT
Temp
°C
App
Temp
°C
Dew
Point
Rel
Hum
%
Delta-T
°C
Wind Press
QNH
hPa
Press
MSL
hPa
Rain
since 9 am
mm
Dir
 
Spd
km/h
Gust
km/h
Spd
kts
Gust
kts
22/01:30pm 26.6 24.6 10.3 36 9.2 NE 11 22 6 12 1022.0 1021.5 0.0
22/01:00pm 26.9 25.3 11.4 38 8.9 N 11 19 6 10 1022.5 1022.0 0.0
22/12:30pm 25.4 22.2 10.1 38 8.6 N 17 24 9 13 1023.2 1022.7 0.0
22/12:00pm 24.7 22.4 10.6 41 7.9 N 13 22 7 12 1024.0 1023.4 0.0
22/11:30am 23.6 21.2 9.9 42 7.6 NE 13 20 7 11 1024.5 1023.9 0.0
22/11:00am 21.8 19.2 9.3 45 6.7 NNE 13 17 7 9 1025.1 1024.6 0.0
22/10:30am 20.4 16.3 8.7 47 6.2 E 20 26 11 14 1025.3 1024.8 0.0
22/10:00am 20.1 15.5 9.7 51 5.6 E 24 30 13 16 1025.6 1025.1 0.0
22/09:30am 18.2 13.7 8.5 53 5.1 E 22 32 12 17 1025.8 1025.3 0.0
22/09:00am 16.8 11.4 8.2 57 4.4 E 26 33 14 18 1025.9 1025.4 0.0
22/08:30am 15.4 9.6 7.9 61 3.8 E 28 39 15 21 1026.0 1025.5 0.0
22/08:00am 13.9 7.6 7.4 65 3.2 E 30 43 16 23 1025.8 1025.3 0.0
22/07:30am 13.0 7.8 7.2 68 2.9 E 24 32 13 17 1026.0 1025.5 0.0
22/07:00am 12.1 7.8 7.0 71 2.5 E 19 28 10 15 1026.2 1025.7 0.0
22/06:30am 11.4 6.4 6.5 72 2.3 E 22 33 12 18 1025.9 1025.4 0.0
22/06:00am 11.7 6.3 6.4 70 2.5 E 24 35 13 19 1025.3 1024.8 0.0
22/05:30am 11.8 6.4 6.3 69 2.6 ESE 24 35 13 19 1024.9 1024.4 0.0
22/05:00am 11.7 6.3 6.4 70 2.5 E 24 32 13 17 1024.9 1024.4 0.0
22/04:30am 12.2 6.1 6.7 69 2.7 E 28 37 15 20 1024.9 1024.4 0.0
22/04:00am 12.1 7.2 6.8 70 2.6 E 22 35 12 19 1025.0 1024.5 0.0
22/03:30am 12.4 7.5 7.1 70 2.6 E 22 33 12 18 1025.1 1024.6 0.0
22/03:00am 12.9 7.0 7.4 69 2.7 E 28 37 15 20 1025.4 1024.9 0.0
22/02:30am 13.0 7.5 7.5 69 2.7 E 26 41 14 22 1025.5 1025.0 0.0
22/02:00am 13.4 7.6 7.8 69 2.8 E 28 39 15 21 1025.6 1025.1 0.0
22/01:30am 13.6 7.8 8.0 69 2.8 E 28 39 15 21 1025.9 1025.4 0.0
22/01:14am 13.8 8.0 8.0 68 2.9 E 28 46 15 25 1026.0 1025.5 0.0
22/01:00am 13.8 8.4 8.0 68 2.9 E 26 43 14 23 1026.1 1025.6 0.0
22/12:30am 14.3 7.8 8.0 66 3.2 E 32 44 17 24 1026.4 1025.9 0.0
22/12:06am 14.3 8.1 8.0 66 3.2 E 30 48 16 26 1026.7 1026.2 0.0
22/12:00am 14.4 7.7 8.1 66 3.2 E 33 50 18 27 1026.7 1026.2 0.0
 
Date/Time
EDT
Temp
°C
App
Temp
°C
Dew
Point
Rel
Hum
%
Delta-T
°C
Wind Press
QNH
hPa
Press
MSL
hPa
Rain
since 9 am
mm
Dir
 
Spd
km/h
Gust
km/h
Spd
kts
Gust
kts
21/11:30pm 14.7 8.2 8.2 65 3.3 E 32 50 17 27 1026.8 1026.3 0.0
21/11:22pm 14.8 7.8 8.3 65 3.3 E 35 54 19 29 1026.7 1026.2 0.0
21/11:00pm 15.1 8.6 8.3 64 3.5 E 32 44 17 24 1026.6 1026.1 0.0
21/10:30pm 15.6 9.0 8.4 62 3.7 E 33 44 18 24 1026.7 1026.2 0.0
21/10:03pm 16.1 9.7 8.6 61 3.9 E 32 50 17 27 1026.6 1026.1 0.0
21/10:00pm 16.2 9.6 8.7 61 3.9 E 33 50 18 27 1026.6 1026.1 0.0
21/09:54pm 16.3 10.0 8.8 61 3.9 E 32 50 17 27 1026.5 1026.0 0.0
21/09:30pm 16.8 10.5 8.8 59 4.2 E 32 44 17 24 1026.3 1025.8 0.0
21/09:00pm 17.7 11.4 8.8 56 4.6 E 32 48 17 26 1026.0 1025.5 0.0
21/08:30pm 19.1 13.9 9.0 52 5.4 E 26 37 14 20 1025.6 1025.1 0.0
21/08:00pm 20.3 14.7 8.9 48 6.1 E 28 35 15 19 1025.2 1024.7 0.0
21/07:30pm 21.3 16.2 9.2 46 6.5 E 26 35 14 19 1024.9 1024.4 0.0
21/07:00pm 22.6 17.4 9.0 42 7.3 E 26 37 14 20 1024.5 1023.9 0.0
21/06:30pm 23.8 18.6 9.0 39 8.1 ESE 26 35 14 19 1024.3 1023.7 0.0
21/06:00pm 25.0 19.9 9.3 37 8.6 ESE 26 33 14 18 1024.1 1023.5 0.0
21/05:30pm 26.1 21.4 9.4 35 9.3 ESE 24 32 13 17 1024.0 1023.4 0.0
21/05:00pm 26.7 23.4 9.5 34 9.6 ENE 17 22 9 12 1024.0 1023.4 0.0
21/04:30pm 26.9 23.4 10.2 35 9.4 E 19 30 10 16 1024.1 1023.5 0.0
21/04:00pm 26.6 22.1 9.9 35 9.3 E 24 32 13 17 1024.3 1023.7 0.0
21/03:30pm 26.6 23.4 9.9 35 9.4 E 17 28 9 15 1024.5 1023.9 0.0
21/03:00pm 26.1 22.4 9.4 35 9.2 ESE 19 28 10 15 1025.1 1024.6 0.0
21/02:30pm 26.9 22.9 10.6 36 9.3 ESE 22 32 12 17 1025.5 1025.0 0.0
21/02:00pm 25.9 21.9 10.5 38 8.7 E 22 37 12 20 1026.0 1025.5 0.0
21/01:30pm 26.0 22.0 10.6 38 8.7 E 22 33 12 18 1026.5 1026.0 0.0
21/01:00pm 24.4 20.2 9.9 40 8.0 E 22 30 12 16 1027.2 1026.6 0.0
21/12:30pm 24.9 21.1 11.1 42 7.9 E 22 35 12 19 1027.6 1027.0 0.0
21/12:00pm 24.1 19.3 10.4 42 7.6 E 26 35 14 19 1028.0 1027.5 0.0
21/11:30am 22.8 17.5 9.9 44 7.1 ENE 28 41 15 22 1028.2 1027.7 0.0
21/11:00am 21.6 16.3 9.8 47 6.4 E 28 39 15 21 1028.6 1028.1 0.0
21/10:30am 21.2 15.2 10.1 49 6.1 E 32 44 17 24 1028.8 1028.3 0.0
21/10:00am 20.1 14.0 9.7 51 5.6 E 32 44 17 24 1029.0 1028.5 0.0
21/09:30am 19.3 12.9 9.5 53 5.3 E 33 46 18 25 1029.0 1028.5 0.0
21/09:00am 18.0 11.8 9.4 57 4.5 E 32 43 17 23 1028.9 1028.4 0.0
21/08:30am 17.0 10.7 9.7 62 3.9 E 33 48 18 26 1028.8 1028.3 0.0
21/08:14am 16.4 9.7 9.6 64 3.6 E 35 56 19 30 1028.5 1028.0 0.0
21/08:00am 16.1 9.5 10.0 67 3.2 E 35 50 19 27 1028.4 1027.9 0.0
21/07:30am 14.9 8.7 9.9 72 2.6 E 33 52 18 28 1028.1 1027.6 0.0
21/07:29am 15.0 8.8 10.2 73 2.5 E 33 52 18 28 1028.1 1027.6 0.0
21/07:00am 14.3 8.6 9.9 75 2.3 E 30 46 16 25 1027.8 1027.2 0.0
21/06:30am 13.8 8.5 10.0 78 2.0 E 28 41 15 22 1027.5 1026.9 0.0
21/06:00am 13.5 9.7 9.9 79 1.9 E 20 28 11 15 1027.4 1026.8 0.0
21/05:30am 13.8 8.9 9.8 77 2.1 E 26 39 14 21 1026.8 1026.3 0.0
21/05:00am 13.9 8.6 9.7 76 2.2 E 28 37 15 20 1026.4 1025.9 0.0
21/04:30am 14.1 9.2 9.9 76 2.2 E 26 39 14 21 1026.2 1025.7 0.0
21/04:00am 14.3 9.4 10.1 76 2.2 E 26 41 14 22 1026.1 1025.6 0.0
21/03:33am 14.6 9.0 10.2 75 2.3 E 30 50 16 27 1026.1 1025.6 0.0
21/03:30am 14.3 9.1 10.1 76 2.2 E 28 39 15 21 1026.2 1025.7 0.0
21/03:00am 14.7 8.5 10.1 74 2.4 E 33 44 18 24 1026.3 1025.8 0.0
21/02:30am 14.9 9.8 10.5 75 2.3 E 28 41 15 22 1026.3 1025.8 0.0
21/02:00am 14.9 10.2 10.5 75 2.3 E 26 35 14 19 1026.3 1025.8 0.0
21/01:53am 15.0 9.9 10.6 75 2.4 E 28 46 15 25 1026.4 1025.9 0.0
21/01:30am 15.3 10.2 10.7 74 2.5 E 28 43 15 23 1026.4 1025.9 0.0
21/01:24am 15.3 9.8 10.5 73 2.6 E 30 48 16 26 1026.4 1025.9 0.0
21/01:00am 15.7 10.3 10.9 73 2.6 E 30 43 16 23 1026.5 1026.0 0.0
21/12:30am 16.2 10.8 10.9 71 2.9 E 30 41 16 22 1026.5 1026.0 0.0
21/12:00am 16.5 11.9 11.0 70 3.0 E 26 35 14 19 1026.5 1026.0 0.0
 
Date/Time
EDT
Temp
°C
App
Temp
°C
Dew
Point
Rel
Hum
%
Delta-T
°C
Wind Press
QNH
hPa
Press
MSL
hPa
Rain
since 9 am
mm
Dir
 
Spd
km/h
Gust
km/h
Spd
kts
Gust
kts
20/11:30pm 17.0 11.0 10.8 67 3.4 E 33 50 18 27 1026.4 1025.9 0.0
20/11:01pm 17.2 11.3 10.6 65 3.6 E 32 50 17 27 1026.2 1025.7 0.0
20/11:00pm 17.2 11.1 10.6 65 3.6 E 33 50 18 27 1026.3 1025.8 0.0
20/10:48pm 17.5 11.5 10.9 65 3.6 E 33 52 18 28 1026.1 1025.6 0.0
20/10:30pm 17.6 11.1 10.5 63 3.8 E 35 52 19 28 1025.8 1025.3 0.0
20/10:10pm 17.9 12.8 10.5 62 4.0 E 28 46 15 25 1025.7 1025.2 0.0
20/10:00pm 17.9 13.1 10.3 61 4.1 E 26 37 14 20 1025.9 1025.4 0.0
20/09:30pm 18.2 14.1 10.1 59 4.4 ESE 22 43 12 23 1025.7 1025.2 0.0
20/09:00pm 18.6 12.6 10.2 58 4.5 E 32 46 17 25 1024.9 1024.4 0.0
20/08:30pm 19.1 13.6 10.4 57 4.7 E 30 41 16 22 1024.6 1024.0 0.0
20/08:14pm 19.7 14.5 10.4 55 5.1 E 28 46 15 25 1024.4 1023.8 0.0
20/08:00pm 20.2 15.5 10.6 54 5.3 E 26 43 14 23 1024.3 1023.7 0.0
20/07:30pm 21.4 15.4 10.9 51 5.9 E 33 50 18 27 1023.5 1022.9 0.0
20/07:00pm 23.2 17.2 10.9 46 6.9 E 33 48 18 26 1022.7 1022.2 0.0
20/06:30pm 25.1 18.8 10.9 41 8.1 E 35 48 19 26 1022.3 1021.8 0.0
20/06:00pm 26.9 20.8 10.6 36 9.3 E 33 48 18 26 1021.9 1021.4 0.0
20/05:30pm 28.4 22.5 11.0 34 10.0 E 33 46 18 25 1021.7 1021.1 0.0
20/05:00pm 29.7 23.9 10.8 31 10.9 E 32 43 17 23 1021.5 1020.9 0.0
20/04:30pm 30.1 24.0 10.6 30 11.3 E 33 48 18 26 1021.4 1020.8 0.0
20/04:00pm 32.3 26.7 3.3 16 15.0 SE 22 30 12 16 1021.6 1021.0 0.0
20/03:30pm 32.3 28.0 3.3 16 15.1 ESE 15 22 8 12 1021.9 1021.4 0.0
20/03:00pm 32.2 28.6 3.2 16 15.0 S 11 22 6 12 1022.3 1021.8 0.0
20/02:30pm 31.6 28.1 3.6 17 14.5 S 11 22 6 12 1022.7 1022.2 0.0
20/02:00pm 32.2 29.1 5.7 19 14.2 SE 11 20 6 11 1023.2 1022.7 0.0
20/01:30pm 31.3 27.7 4.9 19 14.0 ENE 13 19 7 10 1023.7 1023.1 0.0
20/01:00pm 31.2 28.5 5.6 20 13.7 E 9 17 5 9 1024.0 1023.4 0.0
20/12:30pm 30.7 28.2 6.6 22 13.1 NW 9 13 5 7 1024.6 1024.0 0.0
20/12:00pm 29.6 27.0 6.3 23 12.5 N 9 17 5 9 1025.0 1024.5 0.0
20/11:30am 29.3 26.4 6.7 24 12.2 NW 11 17 6 9 1025.3 1024.8 0.0
20/11:00am 27.5 24.6 6.3 26 11.2 NW 11 17 6 9 1025.5 1025.0 0.0
20/10:30am 26.5 24.9 6.5 28 10.6 N 4 9 2 5 1025.7 1025.2 0.0
20/10:00am 24.6 23.5 8.5 36 8.7 SW 4 7 2 4 1025.9 1025.4 0.0
20/09:30am 21.7 19.7 8.6 43 7.0 SE 9 15 5 8 1025.9 1025.4 0.0
20/09:00am 20.1 17.7 8.8 48 6.0 SSE 11 15 6 8 1025.8 1025.3 0.0
20/08:30am 17.9 14.6 7.9 52 5.2 SSE 15 17 8 9 1025.5 1025.0 0.0
20/08:00am 16.4 14.0 8.6 60 4.0 SSE 11 15 6 8 1025.2 1024.7 0.0
20/07:30am 14.1 11.2 8.1 67 3.0 SE 13 15 7 8 1024.8 1024.3 0.0
20/07:00am 12.3 10.2 8.4 77 2.0 SSE 9 11 5 6 1024.4 1023.8 0.0
20/06:30am 10.5 7.2 6.6 77 1.9 SE 13 15 7 8 1024.0 1023.4 0.0
20/06:00am 11.5 8.3 7.0 74 2.2 SSE 13 15 7 8 1023.9 1023.3 0.0
20/05:30am 12.1 8.7 7.6 74 2.2 SSE 15 19 8 10 1023.7 1023.1 0.0
20/05:00am 10.8 7.6 6.7 76 2.0 SSE 13 15 7 8 1023.2 1022.7 0.0
20/04:30am 11.3 7.7 6.6 73 2.3 SE 15 17 8 9 1023.0 1022.5 0.0
20/04:00am 10.6 7.7 6.6 76 1.9 ESE 11 13 6 7 1023.2 1022.7 0.0
20/03:30am 10.3 7.3 6.1 75 2.0 SE 11 13 6 7 1023.1 1022.6 0.0
20/03:00am 11.5 8.2 6.2 70 2.5 SE 13 13 7 7 1023.5 1022.9 0.0
20/02:30am 11.8 8.9 6.5 70 2.5 SSE 11 13 6 7 1023.7 1023.1 0.0
20/02:00am 11.2 8.5 5.7 69 2.6 SE 9 11 5 6 1023.7 1023.1 0.0
20/01:30am 12.2 9.4 5.1 62 3.3 SE 9 11 5 6 1023.9 1023.3 0.0
20/01:00am 13.5 11.2 5.7 59 3.7 SE 7 11 4 6 1024.2 1023.6 0.0
20/12:30am 14.2 11.9 5.8 57 4.1 SSE 7 11 4 6 1024.5 1023.9 0.0
20/12:00am 15.2 11.2 6.5 56 4.3 SSE 17 17 9 9 1024.5 1023.9 0.0
 
Date/Time
EDT
Temp
°C
App
Temp
°C
Dew
Point
Rel
Hum
%
Delta-T
°C
Wind Press
QNH
hPa
Press
MSL
hPa
Rain
since 9 am
mm
Dir
 
Spd
km/h
Gust
km/h
Spd
kts
Gust
kts
19/11:30pm 14.7 12.1 6.0 56 4.2 SSE 9 11 5 6 1024.4 1023.8 0.0
19/11:00pm 16.6 14.0 6.1 50 5.2 E 9 11 5 6 1024.2 1023.6 0.0
19/10:30pm 17.8 15.5 5.7 45 6.0 E 7 11 4 6 1024.3 1023.7 0.0
19/10:00pm 17.2 16.2 5.8 47 5.6 CALM 0 0 0 0 1024.3 1023.7 0.0
19/09:30pm 17.6 16.1 5.2 44 6.1 SE 2 7 1 4 1024.2 1023.6 0.0
19/09:00pm 17.0 14.5 6.5 50 5.2 SSE 9 9 5 5 1024.0 1023.4 0.0
19/08:30pm 18.6 16.8 5.5 42 6.5 S 4 6 2 3 1023.7 1023.1 0.0
19/08:00pm 20.1 18.0 5.7 39 7.2 SE 6 6 3 3 1023.4 1022.8 0.0
19/07:30pm 22.6 20.6 4.2 30 9.1 E 4 6 2 3 1023.0 1022.5 0.0
19/07:00pm 24.9 22.4 3.5 25 10.6 E 6 9 3 5 1022.7 1022.2 0.0
19/06:30pm 27.4 25.0 4.5 23 11.8 SSE 6 11 3 6 1022.4 1021.9 0.0
19/06:00pm 28.1 26.1 4.4 22 12.2 SSE 4 7 2 4 1022.3 1021.8 0.0
19/05:30pm 28.5 25.5 4.1 21 12.6 ENE 9 15 5 8 1022.3 1021.8 0.0
19/05:00pm 28.7 26.3 4.2 21 12.6 NE 6 11 3 6 1022.3 1021.8 0.0
19/04:30pm 28.7 26.3 4.2 21 12.6 S 6 11 3 6 1022.5 1022.0 0.0
19/04:00pm 28.6 25.6 4.2 21 12.5 W 9 17 5 9 1022.8 1022.3 0.0
19/03:30pm 28.0 25.4 4.3 22 12.2 NNE 7 11 4 6 1023.1 1022.6 0.0
19/03:00pm 28.0 24.5 3.7 21 12.3 N 11 19 6 10 1023.6 1023.0 0.0
19/02:30pm 28.1 25.3 5.0 23 12.0 S 9 15 5 8 1024.1 1023.5 0.0
19/02:00pm 27.2 24.1 3.7 22 11.9 NNE 9 17 5 9 1024.6 1024.0 0.0

Other Formats:

Comma delimited format used in spreadsheet applications
http://www.bom.gov.au/fwo/IDN60801/IDN60801.95719.axf

JavaScript Object Notation format (JSON) in row-major order
http://www.bom.gov.au/fwo/IDN60801/IDN60801.95719.json